www.pogodaiklimat.ru

Погода и климат >> Архив погоды >> Россия >> Волгоградская область >> Волгоград


АРХИВ ПОГОДЫ в Волгограде

Время (UTC), дата Ветер
(напр.,м/с)
 
Видим.   Явления Облачность Т
(С)
Тd
(С)
f
(%)
Тe
(С)
Тes
(С)
Комфортность P
(гПа)
Po
(гПа)
Тmin
(С)
Tmax
(С)
R
(мм)
S
(см)
09 15.02 С 5 4000 м слабый снег 10/8 270 м
[Frnb As op]
-6.2 -8.4 84 -14 -13 по сезону 1006.9 987.3
12 15.02 С 7 10 км {снег} 9/5 360 м
[Sc Ac trans]
-6.6 -9.2 82 -15 -15 прохладно 1009.3 989.6
15 15.02 С 8-11
{11}
10 км 9/9 300 м
[St]
-7.6 -9.8 84 -17 -17 прохладно 1012.4 992.6 -5.9
18 15.02 СЗ 7
{11}
10 км в посл. час ливневой снег 5/5 900 м
[Cb calv]
-9.5 -11.2 87 -19 -19 холодно 1014.5 994.5
21 15.02 СЗ 6
{10}
10 км {ливн. осадки} 8/0
[Ac trans]
-10.1 -12.1 85 -19 -19 прохладно 1015.1 995.0
00 16.02 С 7-10
{11}
4000 м слабый ливневой снег 9/9 540 м
[Cb calv]
-11.5 -13.4 86 -21 -21 холодно 1015.9 995.7
03 16.02 С 5
{11}
10 км {ливн. осадки, метель} 5/5 900 м
[Sc]
-11.0 -12.7 87 -19 -19 прохладно 1017.4 997.2 -11.6
06 16.02 -11
{11}
10 км {ливн. осадки, метель} н/о -7.2 -9.9 81 -16 -16 по сезону 1018.8 998.9
09 16.02 С 9-12
{13}
10 км позёмок {метель} 3/0
[Ac trans]
-7.4 -11.3 74 -17 -17 прохладно 1019.6 999.6
12 16.02 С 8-11
{15}
10 км слабый ливневой снег {метель} 6/6 600 м
[Cb calv]
-6.8 -10.4 75 -16 -16 холодно 1020.7 1000.8
15 16.02 С 6
{13}
4000 м слабый ливневой снег {метель} 9/9 1000 м
[Cb calv]
-7.1 -10.2 78 -15 -15 прохладно 1023.3 1003.3 -6.6
18 16.02 С 5
{15}
10 км {ливн. осадки, метель} 5/5 1000 м
[Sc]
-9.2 -12.0 80 -17 -17 прохладно 1025.7 1005.5
21 16.02 С 4 10 км ясно -11.1 -13.4 83 -18 -18 прохладно 1026.7 1006.3
00 17.02 СЗ 3 10 км ясно -13.5 -15.0 88 -20 -20 холодно 1027.9 1007.3
03 17.02 СЗ 2 10 км ясно -15.6 -17.1 88 -21 -21 холодно 1029.3 1008.5 -16.2
06 17.02 С 2 10 км ледяные иглы {снег} ясно -14.0 -15.7 87 -19 -17 прохладно 1030.2 1009.5 -17.1
09 17.02 СЗ 4 10 км ясно -9.3 -11.5 84 -16 -13 прохладно 1029.9 1009.6
12 17.02 З 3 10 км {снег} ясно -6.8 -11.1 71 -12 -10 по сезону 1028.7 1008.6
15 17.02 ЮЗ 3 10 км ясно -11.3 -13.0 87 -17 -17 холодно 1028.8 1008.4 -6.7
18 17.02 ЮЗ 2 10 км ясно -13.3 -14.6 90 -18 -18 прохладно 1028.6 1008.0
21 17.02 ЮЗ 4 10 км 5/0 1500 м
[Ac trans]
-11.7 -13.2 89 -19 -19 прохладно 1027.5 1007.0
00 18.02 ЮЗ 8 10 км 9/9 1000 м
[Sc]
-9.1 -11.0 86 -19 -19 прохладно 1025.6 1005.4
03 18.02 ЮЗ 8 10 км 9/9 1000 м
[Sc]
-8.4 -10.6 84 -18 -18 прохладно 1023.5 1003.4 -14.0
06 18.02 З 9
{11}
10 км 9/9 240 м
[St]
-6.9 -8.5 88 -17 -17 по сезону 1022.7 1002.7
09 18.02 З 9-12
{12}
10 км позёмок {метель} 9/5 400 м
[St Ac trans]
-4.6 -6.3 88 -14 -14 по сезону 1021.5 1001.7
12 18.02 З 9
{12}
10 км позёмок {метель} 9/9 540 м
[Sc]
-2.4 -4.3 87 -11 -11 по сезону 1020.5 1000.9
15 18.02 З 6
{11}
10 км {метель} 10/10 450 м
[Sc]
-1.0 -2.7 88 -8 -8 по сезону 1021.0 1001.5 -0.4
18 18.02 З 9-10
{12}
10 км {метель} 10/10 480 м
[Sc]
-1.0 -2.9 87 -9 -9 по сезону 1020.9 1001.4
21 18.02 З 10-10
{12}
10 км 10/10 240 м
[St]
-0.9 -1.9 93 -10 -10 по сезону 1020.8 1001.3
00 19.02 З 8
{12}
10 км 10/10 180 м
[St]
-0.7 -1.6 94 -9 -9 по сезону 1021.3 1001.8
03 19.02 З 9-11
{12}
10 км 10/10 360 м
[St]
-0.9 -2.4 90 -9 -9 по сезону 1021.8 1002.3 -1.5
06 19.02 З 9
{12}
10 км 8/0
[Ac trans]
-1.0 -2.4 90 -9 -9 по сезону 1023.2 1003.6 -2.3
09 19.02 З 8-10
{12}
10 км 9/5 330 м
[St Ac trans]
+0.8 -1.4 85 -6 -6 по сезону 1024.1 1004.7
12 19.02 З 7-10
{12}
10 км 9/9 360 м
[St]
+1.3 -0.7 87 -5 -5 по сезону 1024.4 1005.0
15 19.02 З 7-10
{10}
10 км 9/9 700 м
[Sc]
+0.7 -0.4 92 -6 -6 по сезону 1025.1 1005.6 +1.4
18 19.02 З 5
{10}
10 км 10/10 750 м
[Sc]
+0.9 -0.3 92 -5 -5 тепло 1025.4 1005.9
21 19.02 З 8 10 км 10/10 1000 м
[Sc]
+0.7 -0.6 91 -7 -7 тепло 1024.2 1004.8
00 20.02 З 8-10
{10}
10 км 10/10 1000 м
[Sc]
+0.7 -0.3 93 -7 -7 тепло 1023.7 1004.3
03 20.02 З 7 4000 м дымка 10/10 1000 м
[Sc]
-0.2 -1.1 94 -8 -8 по сезону 1023.3 1003.8 -0.2
06 20.02 ЮЗ 6 4000 м дымка 10/10 1000 м
[Sc]
0.0 -1.2 92 -7 -7 тепло 1023.1 1003.6 -0.4
09 20.02 ЮЗ 8-10
{10}
4000 м дымка 9/9 840 м
[Sc]
+0.9 -0.5 90 -6 -6 по сезону 1022.2 1002.8
12 20.02 З 7
{10}
10 км 9/9 660 м
[Sc]
+1.4 -0.4 88 -5 -5 по сезону 1020.9 1001.6
15 20.02 З 6
{11}
10 км ясно 0.0 -1.9 87 -7 -7 по сезону 1019.9 1000.5 +1.9
18 20.02 З 7 4000 м дымка ясно -1.5 -2.8 91 -9 -9 по сезону 1019.4 999.9
21 20.02 З 5 4000 м дымка ясно -3.6 -4.3 95 -11 -11 по сезону 1018.2 998.6
00 21.02 З 3 4000 м дымка 4/0
[Ac trans]
-5.1 -5.7 96 -11 -11 по сезону 1016.8 997.1
03 21.02 ЮЗ 2 <100 м туман ?/? -4.6 -5.2 96 -9 -9 по сезону 1015.5 995.8 -5.4
06 21.02 ЮЗ 3 300 м туман ?/? -2.4 -2.8 97 -8 -8 по сезону 1014.9 995.4
09 21.02 Ю 6 10 км {туман} 6/0
[Ci fib]
+3.5 -2.2 66 -2 0 тепло 1012.6 993.6
12 21.02 ЮЗ 6 10 км {туман} ясно +4.3 -1.7 65 -1 0 тепло 1010.4 991.5
15 21.02 ЮЗ 8-11
{11}
10 км 5/0
[Ci fib]
+2.5 +0.1 84 -4 -4 тепло 1010.9 991.8 +4.7
18 21.02 ЮЗ 6
{11}
10 км 5/0
[Ac trans]
+1.4 +0.2 92 -5 -5 тепло 1011.0 991.9
21 21.02 ЮЗ 6 10 км 3/3 1000 м
[Sc]
+1.0 -0.1 92 -5 -5 тепло 1010.2 991.0
00 22.02 ЮЗ 6 10 км 8/8 960 м
[Sc]
+1.7 +0.1 89 -5 -5 тепло 1009.1 990.0
03 22.02 Ю 7 10 км 8/8 870 м
[Sc]
+0.5 -0.6 92 -7 -7 тепло 1007.9 988.8 +0.3
06 22.02 ЮЗ 7-10
{10}
10 км 9/9 210 м
[St]
+1.4 +0.5 94 -5 -5 тепло 1007.7 988.6

 

Местоположение метеостанции Волгоград (Волгоградская область, Россия): широта 48.78 долгота 44.37 высота над уровнем моря 134 м.

В архиве по умолчанию представлена погода в Волгограде за последнюю неделю. Архивные данные за месяц целиком и за предыдущие месяцы, начиная с января 2011 года, Вы можете получить, выбрав интересующий диапазон дат из раскрывающегося списка и нажав кнопку "Ввод!".

Внимание! Время в таблицах - всемирное. Для получения местного времени необходимо прибавить поправку, которая в Волгограде равна 3 ч.

Смотрите также архив погоды в соседних городах и на ближайших метеорологических станциях:

Погода в Волгограде город (Волгоградская область, Россия) (14 км)
Погода в Иловле (Волгоградская область, Россия) (64 км)
Погода в Калаче-на-Дону (Волгоградская область, Россия) (66 км)
Погода в Малых Дербетах (Калмыкия, Россия) (98 км)
Погода в Нижнем Чире (Волгоградская область, Россия) (105 км)
Погода в Ольховке (Волгоградская область, Россия) (122 км)
Погода в Фролове (Волгоградская область, Россия) (124 км)
Погода в Серафимовиче (Волгоградская область, Россия) (148 км)
Погода в Черный Яр (Астраханская область, Россия) (151 км)
Погода в Котельниково (Волгоградская область, Россия) (157 км)

Пояснения к столбцам:

Ветер - указаны скорость ветра в м/с - средняя за 10 мин, порывы в срок и между сроками (в фигурных скобках) и направление, откуда дует ветер: С - северный, СВ - северо-восточный, В - восточный, ЮВ - юго-восточный, Ю - южный, ЮЗ - юго-западный, З - западный, СЗ - северо-западный.
Видимость - горизонтальная дальность видимости в метрах или километрах. При видимости от 1 до 10 км при отсутствии осадков обычно наблюдается дымка, при ухудшении видимости до 1 км и менее - туман. В сухую погоду видимость может ухудшаться дымом, пылью или мглою.
Явления - указаны атмосферные явления, наблюдавшиеся в срок или в последний час перед сроком; фигурными скобками обозначены явления, наблюдавшиеся между сроками (за 1-3 часа до срока); квадратными скобками обозначены град или гололедные отложения с указанием их диаметра в мм.
Облачность - указаны через наклонную черту общая и нижняя облачность в баллах и высота нижней границы облаков в метрах; квадратными скобками обозначены формы облаков: Ci - перистые, Cs - перисто-слоистые, Cc - перисто-кучевые, Ac - высококучевые, As - высокослоистые, Sc - слоисто-кучевые, Ns - слоисто-дождевые, Cu - кучевые, Cb - кучево-дождевые. Подробнее классификацию облаков см. в Атласе облаков (PDF).
T - Температура воздуха - температура, измеренная на высоте 2 м над землей.
Td - Температура точки росы - температура, при понижении до которой содержащийся в воздухе водяной пар достигнет насыщения.
f - Относительная влажность воздуха - влажноcть воздуха, измеренная на высоте 2 м над землей.
Te - Эффективная температура - температура, которую ощущает одетый по сезону человек в тени. Характеристика душности погоды. При расчете учитывается влияние влажности воздуха и скорости ветра на теплоощущения человека.
Tes - Эффективная температура на солнце - температура, которую ощущает человек, с поправкой на солнечный нагрев. Характеристика знойности погоды. Зависит от высоты солнца над горизонтом, облачности и скорости ветра. Ночью, в пасмурную погоду, а также при ветре 12 м/с и более поправка равна нулю.
P - Атмосферное давление - приведенное к уровню моря атмосферное давление.
Po - Атмосферное давление - измеренное на уровне метеостанции атмосферное давление.
Tmin - Минимальная температура - минимум температуры воздуха на высоте 2 м над землей.
Tmax - Максимальная температура - максимум температуры воздуха на высоте 2 м над землей.
R - Количество осадков - Количество выпавших осадков, мм. При наведении курсора мыши на число - период времени, за который выпало указанное количество осадков.
S - Снежный покров - Высота снежного покрова, см. При наведении курсора мыши на число - состояние снежного покрова и степень покрытия местности в баллах.